星链-2484 (STARLINK-2484 )

导读 | 星芒AI

STARLINK-2484 是 SpaceX Starlink 项目中的一颗低轨通信卫星,属于第24批发射的星链卫星群。该卫星旨在为全球用户提供高速互联网服务,尤其关注网络覆盖不足的地区。它运行在约550公里高的近地轨道,配备先进通信设备,支持星间链路,提升数据传输效率。STARLINK-2484 的部署有助于扩大星链网络的覆盖范围和稳定性,促进全球互联网接入的公平性。

基本信息
目录编号:
48141
目录名称:
STARLINK-2484
国际标识:
2021-027BB
轨道中心:
EARTH
卫星名称:
星链-2484
卫星全名:
星链-2484 (STARLINK-2484 )
卫星状态:
已陨落 最后检测时间 2025-02-16
发射日期:
2021-04-07 UTC
国别 :
美国 (US)
星等 :
--
轨道信息
数据来源 国际轨道数据
星历时间: 2025-02-16T06:28:36+0800
轨道信息已过期305天
半长轴: 6595.758km
偏心率: 0.0004562
轨道倾角: 53.038°
近地点辐角 28.590°
升交点赤经 80.191°
平近点角 114.852°
近地点: 214.614km
远地点: 220.632km
周期: 88.850分钟
每日圈数: 16.207116
详细信息
固有亮度:
5
最大亮度:
2.5
卫星平台:
Starlink V1.0
覆盖范围:
全球
运营商:
太空探索技术公司
运营商所在国:
美国
制造商(研发单位):
太空探索技术公司
制造商所在国:
美国
使用方式:
暂无
卫星简介
星链(Starlink)计划是由太空探索技术公司(SpaceX)提出的一个巨型低轨卫星互联网星座项目,计划在2019年至2024年间在太空搭建由约1.2万颗卫星组成的“星链”网络,其中1584颗将部署在地球上空550千米处的近地轨道,并从2020年开始工作。该卫星仍在工作。